| time (UTC) | temp F | wind direction | speed knots | gust knots | rain 1hr in | rain 24hr in | rain mn in | humidity % | barometer mb |
| 20260504030248 | 50 | 138 | 0.0 | 0.0 | 0.00 | 0.01 | 0.01 | 73 | 1012.5 |
| 20260504025744 | 51 | 174 | 0.0 | 0.0 | 0.00 | 0.01 | 0.01 | 73 | 1012.5 |
| 20260504025242 | 51 | 184 | 0.0 | 0.0 | 0.00 | 0.01 | 0.01 | 71 | 1012.4 |
| 20260504024738 | 51 | 148 | 0.0 | 0.0 | 0.00 | 0.01 | 0.01 | 70 | 1012.4 |
| 20260504024235 | 52 | 195 | 0.9 | 0.9 | 0.00 | 0.01 | 0.01 | 71 | 1012.6 |
| 20260504023732 | 53 | 151 | 0.0 | 0.0 | 0.00 | 0.01 | 0.01 | 64 | 1012.6 |
| 20260504023228 | 53 | 134 | 0.0 | 0.0 | 0.00 | 0.01 | 0.01 | 63 | 1012.5 |
| 20260504022724 | 53 | 173 | 0.9 | 0.9 | 0.00 | 0.01 | 0.01 | 63 | 1012.6 |
| 20260504022220 | 53 | 215 | 0.9 | 2.6 | 0.00 | 0.01 | 0.01 | 63 | 1012.7 |
| 20260504021718 | 53 | 158 | 0.0 | 0.9 | 0.00 | 0.01 | 0.01 | 62 | 1012.6 |
| 20260504021215 | 53 | 214 | 1.7 | 4.3 | 0.00 | 0.01 | 0.01 | 62 | 1012.8 |
| 20260504020712 | 54 | 141 | 0.0 | 4.3 | 0.00 | 0.01 | 0.01 | 62 | 1012.5 |
| 20260504020208 | 54 | 161 | 2.6 | 2.6 | 0.00 | 0.01 | 0.01 | 61 | 1012.8 |
| 20260504015704 | 54 | 266 | 1.7 | 2.6 | 0.00 | 0.01 | 0.01 | 61 | 1012.8 |
| 20260504015201 | 54 | 110 | 0.9 | 5.2 | 0.00 | 0.01 | 0.01 | 60 | 1012.9 |
| 20260504014656 | 54 | 293 | 3.5 | 6.1 | 0.00 | 0.01 | 0.01 | 59 | 1012.9 |
| 20260504014154 | 54 | 128 | 0.9 | 5.2 | 0.00 | 0.01 | 0.01 | 59 | 1012.7 |
| 20260504013652 | 54 | 190 | 0.9 | 1.7 | 0.00 | 0.01 | 0.01 | 59 | 1012.4 |
| 20260504013148 | 54 | 261 | 0.9 | 6.1 | 0.00 | 0.01 | 0.01 | 59 | 1012.6 |
| 20260504012645 | 55 | 199 | 2.6 | 4.3 | 0.00 | 0.01 | 0.01 | 59 | 1012.4 |
| 20260504012143 | 55 | 222 | 0.9 | 5.2 | 0.00 | 0.01 | 0.01 | 58 | 1012.6 |
| 20260504011640 | 55 | 243 | 3.5 | 5.2 | 0.00 | 0.01 | 0.01 | 57 | 1012.5 |
| 20260504011136 | 55 | 183 | 2.6 | 4.3 | 0.00 | 0.01 | 0.01 | 56 | 1012.4 |
| 20260504010632 | 55 | 244 | 5.2 | 6.1 | 0.00 | 0.01 | 0.01 | 56 | 1012.5 |
| 20260504010128 | 55 | 224 | 4.3 | 7.0 | 0.00 | 0.01 | 0.01 | 55 | 1012.5 |
| 20260504005625 | 56 | 218 | 3.5 | 9.6 | 0.00 | 0.01 | 0.01 | 55 | 1012.5 |
| 20260504005122 | 55 | 286 | 9.6 | 13.9 | 0.00 | 0.01 | 0.01 | 55 | 1012.5 |
| 20260504004620 | 54 | 213 | 4.3 | 8.7 | 0.00 | 0.01 | 0.01 | 53 | 1012.4 |
| 20260504004117 | 54 | 202 | 0.0 | 1.7 | 0.00 | 0.01 | 0.01 | 58 | 1012.1 |
| 20260504003614 | 54 | 214 | 1.7 | 2.6 | 0.00 | 0.01 | 0.01 | 66 | 1012.1 |
| 20260504003110 | 55 | 108 | 0.0 | 0.9 | 0.00 | 0.01 | 0.01 | 61 | 1012.0 |
| 20260504002607 | 54 | 219 | 0.0 | 1.7 | 0.00 | 0.01 | 0.01 | 68 | 1012.1 |
| 20260504002104 | 55 | 214 | 0.9 | 0.9 | 0.00 | 0.01 | 0.01 | 67 | 1012.1 |
| 20260504001602 | 56 | 154 | 0.0 | 1.7 | 0.00 | 0.01 | 0.01 | 64 | 1012.0 |
| 20260504001058 | 57 | 199 | 0.9 | 2.6 | 0.00 | 0.01 | 0.01 | 49 | 1011.9 |
| 20260504000555 | 57 | 219 | 0.9 | 1.7 | 0.00 | 0.01 | 0.01 | 53 | 1011.8 |
| 20260504000053 | 56 | 137 | 0.0 | 1.7 | 0.00 | 0.01 | 0.01 | 51 | 1012.1 |
| 20260503235551 | 57 | 211 | 0.9 | 2.6 | 0.00 | 0.01 | 0.01 | 47 | 1012.0 |
| 20260503235047 | 57 | 197 | 1.7 | 1.7 | 0.00 | 0.01 | 0.01 | 49 | 1012.1 |
| 20260503234545 | 58 | 268 | 3.5 | 5.2 | 0.00 | 0.01 | 0.01 | 47 | 1012.1 |
| 20260503234043 | 58 | 240 | 2.6 | 4.3 | 0.00 | 0.01 | 0.01 | 47 | 1012.0 |
| 20260503233539 | 58 | 226 | 1.7 | 4.3 | 0.00 | 0.01 | 0.01 | 47 | 1012.1 |
| 20260503233035 | 58 | 144 | 2.6 | 6.1 | 0.00 | 0.01 | 0.01 | 48 | 1012.1 |
| 20260503232532 | 58 | 265 | 0.9 | 5.2 | 0.00 | 0.01 | 0.01 | 46 | 1012.2 |
| 20260503232030 | 58 | 203 | 5.2 | 7.0 | 0.00 | 0.01 | 0.01 | 46 | 1012.3 |
| 20260503231528 | 58 | 250 | 4.3 | 6.1 | 0.00 | 0.01 | 0.01 | 46 | 1012.3 |
| 20260503231024 | 58 | 274 | 3.5 | 6.1 | 0.00 | 0.01 | 0.01 | 45 | 1012.3 |
| 20260503230521 | 59 | 197 | 7.8 | 11.3 | 0.00 | 0.01 | 0.01 | 46 | 1012.4 |
| 20260503230018 | 59 | 202 | 3.5 | 4.3 | 0.00 | 0.01 | 0.01 | 45 | 1012.3 |
| 20260503225515 | 59 | 191 | 1.7 | 7.0 | 0.00 | 0.01 | 0.01 | 46 | 1012.5 |
| 20260503225010 | 59 | 233 | 3.5 | 7.0 | 0.00 | 0.01 | 0.01 | 46 | 1012.4 |
| 20260503224508 | 59 | 225 | 0.0 | 6.1 | 0.00 | 0.01 | 0.01 | 45 | 1012.5 |
| 20260503224005 | 59 | 196 | 1.7 | 2.6 | 0.00 | 0.01 | 0.01 | 46 | 1012.2 |
| 20260503223503 | 59 | 224 | 2.6 | 4.3 | 0.00 | 0.01 | 0.01 | 46 | 1012.6 |
| 20260503222958 | 59 | 273 | 3.5 | 5.2 | 0.00 | 0.01 | 0.01 | 45 | 1012.8 |
| 20260503222457 | 59 | 227 | 2.6 | 7.8 | 0.00 | 0.01 | 0.01 | 45 | 1013.0 |
| 20260503221955 | 59 | 260 | 5.2 | 9.6 | 0.00 | 0.01 | 0.01 | 43 | 1012.4 |
| 20260503221453 | 59 | 166 | 0.9 | 7.8 | 0.00 | 0.01 | 0.01 | 44 | 1012.7 |
| 20260503220950 | 60 | 200 | 4.3 | 8.7 | 0.00 | 0.01 | 0.01 | 45 | 1012.9 |
| 20260503220446 | 60 | 236 | 4.3 | 13.0 | 0.00 | 0.01 | 0.01 | 44 | 1012.6 |
| 20260503215943 | 60 | 98 | 1.7 | 2.6 | 0.00 | 0.01 | 0.01 | 45 | 1012.6 |
| 20260503215440 | 60 | 214 | 3.5 | 8.7 | 0.00 | 0.01 | 0.01 | 46 | 1012.9 |
| 20260503214937 | 60 | 242 | 7.0 | 12.2 | 0.00 | 0.01 | 0.01 | 45 | 1012.9 |
| 20260503214435 | 60 | 229 | 2.6 | 7.8 | 0.00 | 0.01 | 0.01 | 45 | 1013.1 |
| 20260503213932 | 60 | 226 | 3.5 | 7.0 | 0.00 | 0.01 | 0.01 | 45 | 1012.9 |
| 20260503213430 | 60 | 257 | 7.0 | 11.3 | 0.00 | 0.01 | 0.01 | 44 | 1013.0 |
| 20260503212926 | 61 | 247 | 3.5 | 4.3 | 0.00 | 0.01 | 0.01 | 46 | 1012.9 |
| 20260503212424 | 60 | 216 | 7.8 | 11.3 | 0.00 | 0.01 | 0.01 | 45 | 1012.9 |
| 20260503211921 | 61 | 239 | 4.3 | 6.1 | 0.00 | 0.01 | 0.01 | 45 | 1012.9 |
| 20260503211418 | 61 | 213 | 6.1 | 7.8 | 0.00 | 0.01 | 0.01 | 45 | 1013.1 |
| 20260503210913 | 61 | 220 | 1.7 | 6.1 | 0.00 | 0.01 | 0.01 | 43 | 1012.9 |
| 20260503210410 | 60 | 253 | 4.3 | 7.0 | 0.00 | 0.01 | 0.01 | 45 | 1013.0 |
| 20260503205905 | 61 | 274 | 0.9 | 14.8 | 0.00 | 0.01 | 0.01 | 44 | 1013.0 |
| 20260503205403 | 62 | 255 | 7.0 | 7.8 | 0.00 | 0.01 | 0.01 | 45 | 1013.2 |
| 20260503204858 | 61 | 228 | 3.5 | 6.1 | 0.00 | 0.01 | 0.01 | 45 | 1013.0 |
| 20260503204356 | 62 | 37 | 4.3 | 7.0 | 0.00 | 0.01 | 0.01 | 46 | 1013.0 |
| 20260503203853 | 62 | 243 | 1.7 | 2.6 | 0.00 | 0.01 | 0.01 | 48 | 1012.9 |
| 20260503203350 | 60 | 213 | 6.1 | 7.8 | 0.00 | 0.01 | 0.01 | 47 | 1012.9 |
| 20260503202847 | 60 | 236 | 4.3 | 8.7 | 0.00 | 0.01 | 0.01 | 44 | 1013.3 |
| 20260503202345 | 60 | 240 | 6.1 | 8.7 | 0.00 | 0.01 | 0.01 | 45 | 1013.1 |
| 20260503201844 | 61 | 341 | 0.9 | 7.8 | 0.00 | 0.01 | 0.01 | 47 | 1013.1 |
| 20260503201340 | 60 | 220 | 2.6 | 8.7 | 0.00 | 0.01 | 0.01 | 45 | 1013.2 |
| 20260503200838 | 60 | 210 | 7.0 | 13.0 | 0.00 | 0.01 | 0.01 | 45 | 1013.4 |
| 20260503200333 | 61 | 215 | 6.1 | 11.3 | 0.00 | 0.01 | 0.01 | 45 | 1013.3 |
| 20260503195831 | 60 | 255 | 3.5 | 7.0 | 0.00 | 0.01 | 0.01 | 48 | 1013.3 |
| 20260503195327 | 61 | 179 | 4.3 | 11.3 | 0.00 | 0.01 | 0.01 | 46 | 1013.6 |
| 20260503194824 | 61 | 266 | 7.0 | 7.8 | 0.00 | 0.01 | 0.01 | 44 | 1013.7 |
| 20260503194320 | 62 | 291 | 2.6 | 4.3 | 0.00 | 0.01 | 0.01 | 44 | 1013.8 |
| 20260503193817 | 60 | 255 | 2.6 | 5.2 | 0.00 | 0.01 | 0.01 | 46 | 1013.8 |
| 20260503193313 | 60 | 124 | 1.7 | 7.8 | 0.00 | 0.01 | 0.01 | 45 | 1013.9 |
| 20260503192809 | 61 | 103 | 2.6 | 9.6 | 0.00 | 0.01 | 0.01 | 47 | 1014.0 |
| 20260503192305 | 60 | 258 | 2.6 | 8.7 | 0.00 | 0.01 | 0.01 | 50 | 1014.1 |
| 20260503191801 | 61 | 250 | 1.7 | 4.3 | 0.00 | 0.01 | 0.01 | 44 | 1014.1 |
| 20260503191258 | 61 | 202 | 2.6 | 8.7 | 0.00 | 0.01 | 0.01 | 46 | 1014.2 |
| 20260503190754 | 61 | 125 | 2.6 | 8.7 | 0.00 | 0.01 | 0.01 | 47 | 1014.2 |
| 20260503190251 | 61 | 228 | 5.2 | 7.8 | 0.00 | 0.01 | 0.01 | 46 | 1014.4 |
| 20260503185748 | 60 | 46 | 7.0 | 9.6 | 0.00 | 0.01 | 0.01 | 45 | 1014.5 |
| 20260503185244 | 60 | 267 | 10.4 | 14.8 | 0.00 | 0.01 | 0.01 | 46 | 1014.6 |
| 20260503184739 | 60 | 137 | 5.2 | 8.7 | 0.00 | 0.01 | 0.01 | 48 | 1014.6 |
| 20260503184236 | 60 | 123 | 6.1 | 14.8 | 0.00 | 0.01 | 0.01 | 48 | 1014.6 |
| 20260503183732 | 60 | 275 | 1.7 | 7.8 | 0.00 | 0.01 | 0.01 | 47 | 1014.9 |
| 20260503183229 | 60 | 256 | 5.2 | 11.3 | 0.00 | 0.01 | 0.01 | 47 | 1014.8 |
| 20260503182727 | 60 | 116 | 1.7 | 6.1 | 0.00 | 0.01 | 0.01 | 48 | 1014.9 |
| 20260503182226 | 58 | 208 | 1.7 | 9.6 | 0.00 | 0.01 | 0.01 | 48 | 1014.9 |
| 20260503181722 | 59 | 295 | 3.5 | 7.0 | 0.00 | 0.01 | 0.01 | 49 | 1014.8 |
| 20260503181219 | 61 | 280 | 1.7 | 4.3 | 0.00 | 0.01 | 0.01 | 45 | 1014.9 |
| 20260503180715 | 59 | 306 | 5.2 | 11.3 | 0.00 | 0.01 | 0.01 | 55 | 1015.1 |
| 20260503180214 | 58 | 88 | 0.9 | 1.7 | 0.00 | 0.01 | 0.01 | 50 | 1015.0 |
| 20260503175710 | 57 | 243 | 2.6 | 2.6 | 0.00 | 0.01 | 0.01 | 52 | 1015.2 |
| 20260503175208 | 58 | 251 | 7.8 | 8.7 | 0.00 | 0.01 | 0.01 | 48 | 1015.2 |
| 20260503174704 | 58 | 286 | 1.7 | 7.0 | 0.00 | 0.01 | 0.01 | 47 | 1015.5 |
| 20260503174202 | 59 | 230 | 1.7 | 7.8 | 0.00 | 0.01 | 0.01 | 47 | 1015.2 |
| 20260503173657 | 58 | 213 | 4.3 | 6.1 | 0.00 | 0.01 | 0.01 | 46 | 1015.2 |
| 20260503173153 | 59 | 160 | 2.6 | 2.6 | 0.00 | 0.01 | 0.01 | 50 | 1015.2 |
| 20260503172650 | 60 | 281 | 2.6 | 5.2 | 0.00 | 0.01 | 0.01 | 49 | 1015.4 |
| 20260503172147 | 58 | 234 | 3.5 | 6.1 | 0.00 | 0.01 | 0.01 | 46 | 1015.2 |
| 20260503171643 | 59 | 249 | 4.3 | 5.2 | 0.00 | 0.01 | 0.01 | 48 | 1015.4 |
| 20260503171141 | 57 | 218 | 4.3 | 7.0 | 0.00 | 0.01 | 0.01 | 49 | 1015.5 |
| 20260503170638 | 59 | 253 | 0.9 | 8.7 | 0.00 | 0.01 | 0.01 | 49 | 1015.6 |
| 20260503170135 | 59 | 254 | 1.7 | 5.2 | 0.00 | 0.01 | 0.01 | 51 | 1015.4 |
| 20260503150526 | 53 | 263 | 6.1 | 7.8 | 0.00 | 0.01 | 0.01 | 54 | 1016.9 |
| 20260503131419 | 45 | 144 | 0.0 | 4.3 | 0.00 | 0.01 | 0.01 | 74 | 1017.5 |
| 20260503130916 | 46 | 169 | 1.7 | 1.7 | 0.00 | 0.01 | 0.01 | 71 | 1017.4 |
| 20260503130414 | 45 | 251 | 1.7 | 2.6 | 0.00 | 0.01 | 0.01 | 73 | 1017.6 |
| 20260503110818 | 29 | 203 | 0.0 | 0.0 | 0.00 | 0.00 | 0.00 | 95 | 1016.9 |
| 20260503110315 | 29 | 182 | 0.0 | 0.0 | 0.00 | 0.00 | 0.00 | 95 | 1017.0 |
| 20260503100241 | 29 | 215 | 0.9 | 0.9 | 0.00 | 0.00 | 0.00 | 95 | 1016.4 |
| 20260503090200 | 30 | 205 | 0.9 | 1.7 | 0.00 | 0.00 | 0.00 | 95 | 1016.4 |
| 20260503081630 | 31 | 195 | 0.9 | 1.7 | 0.00 | 0.00 | 0.00 | 95 | 1016.3 |
| 20260503081127 | 31 | 179 | 0.9 | 1.7 | 0.00 | 0.00 | 0.00 | 95 | 1016.3 |
| 20260503080623 | 32 | 162 | 0.0 | 0.9 | 0.00 | 0.00 | 0.00 | 95 | 1016.4 |
| 20260503080120 | 32 | 184 | 0.9 | 0.9 | 0.00 | 0.00 | 0.00 | 95 | 1016.2 |
| 20260503072557 | 33 | 199 | 0.9 | 0.9 | 0.00 | 0.00 | 0.00 | 95 | 1016.0 |
| 20260503072054 | 33 | 161 | 0.9 | 0.9 | 0.00 | 0.00 | 0.00 | 95 | 1016.3 |
| 20260503071550 | 33 | 180 | 0.9 | 0.9 | 0.00 | 0.00 | 0.00 | 95 | 1015.9 |
| 20260503071047 | 33 | 120 | 0.0 | 0.9 | 0.00 | 0.00 | 0.00 | 95 | 1016.2 |
| 20260503070543 | 33 | 140 | 0.9 | 1.7 | 0.00 | 0.00 | 0.00 | 95 | 1016.4 |
| 20260503054957 | 35 | 201 | 0.9 | 0.9 | 0.00 | 0.00 | 0.00 | 94 | 1016.4 |
| 20260503054453 | 35 | 139 | 0.0 | 0.0 | 0.00 | 0.00 | 0.00 | 94 | 1016.2 |
| 20260503053951 | 35 | 191 | 0.9 | 0.9 | 0.00 | 0.00 | 0.00 | 94 | 1016.3 |
| 20260503053449 | 35 | 203 | 0.9 | 0.9 | 0.00 | 0.00 | 0.00 | 94 | 1016.4 |
| 20260503052945 | 35 | 246 | 0.9 | 1.7 | 0.00 | 0.00 | 0.00 | 94 | 1016.5 |
| 20260503052443 | 35 | 241 | 0.9 | 0.9 | 0.00 | 0.00 | 0.00 | 94 | 1016.5 |
| 20260503051939 | 35 | 196 | 0.9 | 0.9 | 0.00 | 0.00 | 0.00 | 94 | 1016.5 |
| 20260503051435 | 35 | 199 | 0.9 | 0.9 | 0.00 | 0.00 | 0.00 | 94 | 1016.6 |
| 20260503050932 | 35 | 229 | 0.9 | 1.7 | 0.00 | 0.00 | 0.00 | 94 | 1016.6 |
| 20260503050427 | 35 | 218 | 0.9 | 1.7 | 0.00 | 0.00 | 0.00 | 94 | 1016.5 |
| 20260503045926 | 35 | 227 | 0.9 | 0.9 | 0.00 | 0.00 | 0.00 | 94 | 1016.7 |
| 20260503045423 | 35 | 178 | 0.0 | 0.9 | 0.00 | 0.00 | 0.00 | 94 | 1016.7 |
| 20260503044920 | 35 | 175 | 0.0 | 1.7 | 0.00 | 0.00 | 0.00 | 94 | 1016.6 |
| 20260503044417 | 35 | 232 | 0.9 | 1.7 | 0.00 | 0.00 | 0.00 | 94 | 1016.5 |
| 20260503043914 | 35 | 236 | 1.7 | 1.7 | 0.00 | 0.00 | 0.00 | 94 | 1016.6 |
| 20260503043411 | 35 | 142 | 0.0 | 0.0 | 0.00 | 0.00 | 0.00 | 94 | 1016.4 |
| 20260503042907 | 35 | 194 | 0.9 | 0.9 | 0.00 | 0.00 | 0.00 | 94 | 1016.3 |
| 20260503042404 | 35 | 186 | 0.0 | 0.9 | 0.00 | 0.00 | 0.00 | 94 | 1016.4 |
| 20260503041900 | 35 | 214 | 0.9 | 1.7 | 0.00 | 0.00 | 0.00 | 94 | 1016.5 |
| 20260503041357 | 35 | 242 | 0.9 | 0.9 | 0.00 | 0.00 | 0.00 | 94 | 1016.2 |
| 20260503040854 | 35 | 244 | 1.7 | 1.7 | 0.00 | 0.00 | 0.00 | 94 | 1016.4 |
| 20260503040352 | 35 | 226 | 0.9 | 1.7 | 0.00 | 0.00 | 0.00 | 94 | 1016.5 |
| 20260503035849 | 35 | 253 | 1.7 | 1.7 | 0.00 | 0.01 | 0.01 | 94 | 1016.5 |
| 20260503035346 | 35 | 233 | 0.9 | 1.7 | 0.00 | 0.01 | 0.01 | 93 | 1016.7 |
| 20260503034843 | 35 | 129 | 0.9 | 0.9 | 0.00 | 0.01 | 0.01 | 93 | 1016.5 |
| 20260503034340 | 36 | 243 | 0.9 | 1.7 | 0.00 | 0.01 | 0.01 | 93 | 1016.4 |
| 20260503033838 | 36 | 243 | 0.9 | 1.7 | 0.00 | 0.01 | 0.01 | 93 | 1016.2 |
| 20260503033335 | 36 | 203 | 0.9 | 1.7 | 0.00 | 0.01 | 0.01 | 93 | 1016.5 |
| 20260503032833 | 36 | 249 | 0.9 | 0.9 | 0.00 | 0.01 | 0.01 | 93 | 1016.7 |
| 20260503032331 | 37 | 200 | 0.9 | 0.9 | 0.00 | 0.01 | 0.01 | 93 | 1016.7 |
| 20260503031828 | 37 | 230 | 0.9 | 1.7 | 0.00 | 0.01 | 0.01 | 93 | 1016.5 |
| 20260503031326 | 37 | 236 | 0.9 | 1.7 | 0.00 | 0.01 | 0.01 | 93 | 1016.6 |
| 20260503030822 | 37 | 215 | 0.9 | 0.9 | 0.00 | 0.01 | 0.01 | 92 | 1016.5 |